Tracking 21155 objects as of 15-Aug-2020
HD Live streaming from Space Station
objects crossing your sky now

ARIANE 5 DEB (SYLDA)

Track ARIANE 5 DEB (SYLDA) now!
10-day predictions


NORAD ID: 40666
Int'l Code: 2015-026D
Perigee: 262.8 km
Apogee: 24,420.0 km
Inclination: 4.0 °
Period: 424.6 minutes
Semi major axis: 18712 km
RCS: Unknown
Launch date: May 27, 2015
Source: France (FR)
Launch site: FRENCH GUIANA (FRGUI)

Note: This is SATELLITE DEBRIS
aabbcc
Your satellite tracking list
Your tracking list is empty




NASA's NSSDC Master Catalog

Two Line Element Set (TLE):
1 40666U 15026D   20228.52118213 +.00011773 +00000-0 +19322-2 0  9991
2 40666 004.0471 016.0485 6454869 195.9537 126.3160 03.39162900056413
Source of the keplerian elements: AFSPC